Yankton, SD

5:10 PM CST on November 19, 2019 (GMT -0600)
Gurney Municipal

Weather History for KYKN - September, 2019

Change the Weather History Date:

Saturday, September 14, 2019

  Actual Average Record
Temperature  
Mean Temperature 70 °F -  
Max Temperature 84 °F 73 °F 98 °F (1955)
Min Temperature 55 °F 49 °F 35 °F (1989)
Cooling Degree Days 4    
Growing Degree Days 20 (Base 50)    
Moisture  
Dew Point 63 °F    
Average Humidity 82    
Maximum Humidity 94    
Minimum Humidity 63    
Precipitation  
Precipitation 0.02 in - - ()
Sea Level Pressure  
Sea Level Pressure 29.99 in    
Wind  
Wind Speed 7 mph (SE)    
Max Wind Speed 17 mph    
Max Gust Speed 23 mph    
Visibility 10 miles    
Events Rain , Thunderstorm    
Averages and records for this station are not official NWS values.
T = Trace of Precipitation, MM = Missing Value Source: NWS Daily Summary

Daily Weather History Graph

Daily Weather History Graph

Search for Another Location

Airport or City:

Astronomy

Sep. 14, 2019 Rise Set
Actual Time 7:07 AM CDT 7:41 PM CDT
Civil Twilight 6:39 AM CDT 8:10 PM CDT
Nautical Twilight 6:05 AM CDT 8:43 PM CDT
Astronomical Twilight 5:30 AM CDT 9:18 PM CDT
Moon 8:23 PM CDT (9/14) 7:21 AM CDT (9/14)
Length of Visible Light 13h 30m
Length of Day
12h 33m
Full, 100% of the Moon is Illuminated
Sep 14
Full
Sep 21
Last Quarter
Sep 28
New
Oct 5
First Quarter
Oct 13
Full

Hourly Weather History & Observations

Time (CDT) Temp. Heat Index Dew Point Humidity Pressure Visibility Wind Dir Wind Speed Gust Speed Precip Events Conditions
12:56 AM 57.9 °F - 55.9 °F 93% 30.14 in 10.0 mi East 3.5 mph - N/A   Clear
1:56 AM 57.9 °F - 55.9 °F 93% 30.12 in 10.0 mi Calm Calm - N/A   Mostly Cloudy
2:56 AM 57.0 °F - 55.0 °F 93% 30.10 in 10.0 mi East 5.8 mph - N/A   Clear
3:56 AM 55.9 °F - 54.0 °F 93% 30.09 in 10.0 mi East 4.6 mph - N/A   Partly Cloudy
4:56 AM 57.0 °F - 55.0 °F 93% 30.06 in 10.0 mi ESE 4.6 mph - N/A   Scattered Clouds
5:54 AM 57.2 °F - 55.4 °F 94% 30.01 in 10.0 mi ESE 8.1 mph - 0.00 in Rain , Thunderstorm Light Thunderstorms and Rain
5:56 AM 57.9 °F - 55.9 °F 93% 30.03 in 10.0 mi ESE 8.1 mph - 0.00 in Rain , Thunderstorm Light Thunderstorms and Rain
6:48 AM 59.0 °F - 57.2 °F 94% 30.01 in 10.0 mi East 8.1 mph - 0.02 in   Clear
6:56 AM 59.0 °F - 57.0 °F 93% 30.03 in 10.0 mi ESE 8.1 mph - 0.02 in   Clear
7:56 AM 61.0 °F - 59.0 °F 93% 30.04 in 10.0 mi ESE 8.1 mph - N/A   Clear
8:56 AM 64.0 °F - 61.0 °F 90% 30.04 in 10.0 mi SE 6.9 mph - N/A   Clear
9:56 AM 69.1 °F - 63.0 °F 81% 30.03 in 10.0 mi SSE 9.2 mph - N/A   Clear
10:56 AM 73.0 °F - 64.0 °F 73% 30.01 in 10.0 mi South 10.4 mph - N/A   Clear
11:56 AM 75.9 °F - 66.0 °F 71% 29.99 in 10.0 mi SSE 11.5 mph - N/A   Clear
12:56 PM 78.1 °F - 66.9 °F 68% 29.97 in 10.0 mi SSE 16.1 mph - N/A   Clear
1:56 PM 80.1 °F 82.7 °F 68.0 °F 67% 29.95 in 10.0 mi South 13.8 mph - N/A   Partly Cloudy
2:56 PM 82.0 °F 85.9 °F 70.0 °F 67% 29.93 in 10.0 mi SSE 17.3 mph - N/A   Clear
3:56 PM 82.9 °F 86.5 °F 69.1 °F 63% 29.91 in 10.0 mi South 16.1 mph 23.0 mph N/A   Clear
4:56 PM 84.0 °F 88.4 °F 70.0 °F 63% 29.90 in 10.0 mi South 12.7 mph - N/A   Clear
5:56 PM 82.9 °F 87.0 °F 70.0 °F 65% 29.91 in 10.0 mi South 10.4 mph - N/A   Clear
6:56 PM 82.0 °F 86.3 °F 71.1 °F 69% 29.90 in 10.0 mi South 9.2 mph - N/A   Clear
7:56 PM 78.1 °F - 71.1 °F 79% 29.92 in 10.0 mi SE 3.5 mph - N/A   Clear
8:56 PM 75.9 °F - 71.1 °F 85% 29.92 in 10.0 mi Calm Calm - N/A   Clear
9:56 PM 70.0 °F - 68.0 °F 93% 29.94 in 7.0 mi Calm Calm - N/A   Clear
10:56 PM 69.1 °F - 66.0 °F 90% 29.94 in 10.0 mi NW 8.1 mph - N/A   Clear
11:56 PM 66.9 °F - 62.1 °F 84% 29.96 in 10.0 mi West 5.8 mph - N/A   Clear